Weather History for Schefferville, QC

Change the Weather History Date:

Saturday, March 30, 2013

  Actual Average Record
Temperature  
Mean Temperature 2 °F -  
Max Temperature 26 °F 20 °F 42 °F (2004)
Min Temperature -21 °F 0 °F -25 °F (2014)
Degree Days  
Heating Degree Days 62    
Moisture  
Dew Point -9 °F    
Average Humidity 68    
Maximum Humidity 92    
Minimum Humidity 22    
Precipitation  
Precipitation 0.02 in - - ()
Sea Level Pressure  
Sea Level Pressure 30.08 in    
Wind  
Wind Speed 2 mph ()    
Max Wind Speed 23 mph    
Max Gust Speed -    
Visibility 6.4 miles    
Events      
Averages and records for this station are not official NWS values.
T = Trace of Precipitation, MM = Missing Value Source: Averaged Metar Reports

Daily Weather History Graph

Daily Weather History Graph

Search for Another Location

Airport:

Trip Planner

Search our weather history database for the weather conditions in past years. The results will help you decide how hot, cold, wet, or windy it might be!

Date:

Astronomy

Mar. 30, 2013 Rise Set
Actual Time 6:03 AM EDT 7:00 PM EDT
Civil Twilight 5:26 AM EDT 7:37 PM EDT
Nautical Twilight 4:42 AM EDT 8:22 PM EDT
Astronomical Twilight 3:54 AM EDT 9:10 PM EDT
Moon 11:44 PM EDT (3/30) 7:18 AM EDT (3/30)
Length of Visible Light 14h 10m
Length of Day
12h 57m
Waning Gibbous, 86% of the Moon is Illuminated
Mar 30
Waning Gibbous
Apr 3
Last Quarter
Apr 10
New
Apr 18
First Quarter
Apr 25
Full

Hourly Weather History & Observations

Time (EDT) Temp. Windchill Dew Point Humidity Pressure Visibility Wind Dir Wind Speed Gust Speed Precip Events Conditions
12:00 AM -7.6 °F - -13.0 °F 77% 30.12 in 5.0 mi Calm Calm - N/A   Haze
12:09 AM -9.4 °F - -14.8 °F 77% 30.12 in 6.0 mi Calm Calm - N/A   Haze
12:20 AM -9.4 °F - -13.0 °F 84% 30.12 in 4.0 mi Calm Calm - N/A   Clear
12:40 AM -9.4 °F - -13.0 °F 84% 30.12 in 9.0 mi Calm Calm - N/A   Clear
1:00 AM -9.4 °F - -14.8 °F 77% 30.11 in 9.0 mi Calm Calm - N/A   Clear
1:25 AM -11.2 °F - -16.6 °F 77% 30.11 in 4.0 mi Calm Calm - N/A   Haze
1:27 AM -13.0 °F - -16.6 °F 84% 30.11 in 2.5 mi Calm Calm - N/A   Haze
1:35 AM -13.0 °F - -16.6 °F 84% 30.11 in 4.0 mi Calm Calm - N/A   Haze
1:37 AM -11.2 °F - -14.8 °F 84% 30.11 in 7.0 mi Calm Calm - N/A   Clear
2:00 AM -14 °F - -19 °F 65% 30.11 in - North 23.0 mph - -  
2:00 AM -13.0 °F - -18.4 °F 77% 30.11 in 9.0 mi Calm Calm - N/A   Clear
2:10 AM -13.0 °F - -18.4 °F 77% 30.11 in 5.0 mi Calm Calm - N/A   Haze
2:15 AM -14.8 °F - -18.4 °F 84% 30.11 in 6.0 mi Calm Calm - N/A   Haze
3:00 AM -13.0 °F -22.7 °F -16.6 °F 84% 30.11 in 9.0 mi SW 3.5 mph - N/A   Clear
4:00 AM -13.0 °F -25.1 °F -18.4 °F 77% 30.11 in 9.0 mi South 4.6 mph - N/A   Clear
5:00 AM -19 °F - -25 °F 58% 30.12 in - SSE 2.3 mph - -  
5:00 AM -16.6 °F - -22.0 °F 76% 30.11 in 9.0 mi SSE 2.3 mph - N/A   Clear
5:42 AM -16.6 °F - -20.2 °F 84% 30.11 in 5.0 mi Variable 2.3 mph - N/A   Haze
5:52 AM -14.8 °F -27.2 °F -20.2 °F 77% 30.11 in 6.0 mi SE 4.6 mph - N/A   Haze
6:00 AM -14.8 °F -24.8 °F -18.4 °F 84% 30.11 in 9.0 mi SSE 3.5 mph - N/A   Clear
6:16 AM -16.6 °F - -22.0 °F 76% 30.11 in 5.0 mi Calm Calm - N/A   Haze
6:25 AM -14.8 °F - -20.2 °F 77% 30.11 in 7.0 mi SSE 2.3 mph - N/A   Clear
6:49 AM -14.8 °F - -18.4 °F 84% 30.11 in 3.0 mi SE 2.3 mph - N/A   Haze
6:52 AM -14.8 °F - -18.4 °F 84% 30.11 in 2.5 mi SE 2.3 mph - N/A   Haze
6:59 AM -13.0 °F -25.1 °F -16.6 °F 84% 30.11 in 3.0 mi ESE 4.6 mph - N/A   Haze
7:00 AM -13.0 °F -22.7 °F -16.6 °F 84% 30.11 in 3.0 mi ESE 3.5 mph - N/A   Haze
7:01 AM -13.0 °F -22.7 °F -16.6 °F 84% 30.11 in 2.5 mi SE 3.5 mph - N/A   Haze
7:04 AM -13.0 °F - -16.6 °F 84% 30.11 in 1.8 mi Calm Calm - N/A   Haze
7:12 AM -11.2 °F - -16.6 °F 77% 30.11 in 2.0 mi Variable 2.3 mph - N/A   Haze
7:14 AM -11.2 °F - -16.6 °F 77% 30.11 in 3.0 mi Calm Calm - N/A   Haze
7:19 AM -11.2 °F - -16.6 °F 77% 30.11 in 6.0 mi Variable 2.3 mph - N/A   Haze
7:54 AM -5.8 °F - -11.2 °F 77% 30.10 in 5.0 mi Calm Calm - N/A   Clear
8:00 AM -6 °F - -13 °F 58% 30.12 in - SE 12.7 mph - -  
8:00 AM -5.8 °F - -9.4 °F 84% 30.11 in 5.0 mi Calm Calm - N/A   Haze
8:01 AM -5.8 °F - -9.4 °F 84% 30.11 in 6.0 mi Calm Calm - N/A   Haze
8:34 AM 1.4 °F - -0.4 °F 92% 30.09 in 5.0 mi Variable 2.3 mph - N/A   Haze
8:35 AM 3.2 °F - -0.4 °F 85% 30.09 in 1.0 mi Variable 2.3 mph - N/A   Clear
8:45 AM 6.8 °F - -0.4 °F 72% 30.09 in 7.0 mi SSE 2.3 mph - N/A   Clear
9:00 AM 10.4 °F 4.0 °F -0.4 °F 62% 30.08 in 9.0 mi South 3.5 mph - N/A   Clear
10:00 AM 12.2 °F 2.9 °F 1.4 °F 62% 30.07 in 9.0 mi SSW 5.8 mph - N/A   Clear
11:00 AM 17 °F - -1 °F 29% 30.08 in - SW 3.5 mph - -  
11:00 AM 15.8 °F 7.2 °F 1.4 °F 53% 30.07 in 9.0 mi SW 5.8 mph - N/A   Clear
12:00 PM 19.4 °F 11.5 °F 5.0 °F 54% 30.06 in 9.0 mi SW 5.8 mph - N/A   Clear
1:00 PM 21.2 °F 12.6 °F 5.0 °F 50% 30.04 in 9.0 mi SSW 6.9 mph - N/A   Clear
2:00 PM 23 °F - 4 °F 28% 30.04 in - WSW 6.9 mph - -  
2:00 PM 23.0 °F 14.7 °F 5.0 °F 46% 30.03 in 9.0 mi SW 6.9 mph - N/A   Clear
3:00 PM 24.8 °F 16.1 °F 5.0 °F 43% 30.02 in 9.0 mi SW 8.1 mph - N/A   Clear
4:00 PM 26.6 °F 20.0 °F 6.8 °F 43% 30.01 in 9.0 mi SW 5.8 mph - N/A   Clear
5:00 PM 26 °F - 2 °F 22% 30.01 in - SW 4.6 mph - -  
5:00 PM 26.6 °F 19.1 °F 5.0 °F 40% 30.00 in 9.0 mi SSW 6.9 mph - N/A   Clear
6:00 PM 24.8 °F 19.1 °F 5.0 °F 43% 30.00 in 9.0 mi SSW 4.6 mph - N/A   Clear
7:00 PM 21.2 °F 13.6 °F 5.0 °F 50% 30.00 in 9.0 mi South 5.8 mph - N/A   Clear
8:00 PM 16 °F - -0 °F 34% 29.99 in - SSW 5.8 mph - -  
8:00 PM 17.6 °F 9.3 °F 3.2 °F 53% 30.00 in 9.0 mi South 5.8 mph - N/A   Clear
9:00 PM 14.0 °F 3.9 °F 3.2 °F 62% 29.98 in 9.0 mi SSW 6.9 mph - N/A   Clear
10:00 PM 14.0 °F 8.2 °F 1.4 °F 57% 29.98 in 9.0 mi SE 3.5 mph - N/A   Clear
11:00 PM 10 °F - -1 °F 47% 29.96 in - SE 5.8 mph - -  
11:00 PM 12.2 °F 0.7 °F 1.4 °F 62% 29.96 in 9.0 mi SE 8.1 mph - N/A   Clear